Weather History for KMLE - July, 2012

Change the Weather History Date:

Thursday, July 26, 2012

  Actual Average (KOMA) Record (KOMA)
Temperature  
Mean Temperature 84 °F 77 °F  
Max Temperature 95 °F 87 °F 109 °F (1936)
Min Temperature 72 °F 66 °F 52 °F (2004)
Degree Days  
Heating Degree Days 0 0  
Month to date heating degree days 0  
Since 1 June heating degree days 17  
Since 1 July heating degree days 0  
Cooling Degree Days 18 12  
Month to date cooling degree days 308  
Year to date cooling degree days 620  
Since 1 June cooling degree days 538  
Growing Degree Days 34 (Base 50)    
Moisture  
Dew Point 64 °F    
Average Humidity 57    
Maximum Humidity 93    
Minimum Humidity 25    
Precipitation  
Precipitation 0.00 in 0.12 in 1.90 in (1966)
Month to date precipitation 3.20  
Year to date precipitation 18.66  
Snow  
Snow 0.00 in 0.00 in - ()
Month to date snowfall 0.0  
Since 1 July snowfall 0.0  
Snow Depth -    
Sea Level Pressure  
Sea Level Pressure 29.83 in    
Wind  
Wind Speed 6 mph (WNW)    
Max Wind Speed 15 mph    
Max Gust Speed 22 mph    
Visibility 10 miles    
Events      
T = Trace of Precipitation, MM = Missing Value Source: NWS Daily Summary

Daily Weather History Graph

Daily Weather History Graph

Search for Another Location

Airport or City:

Trip Planner

Search our weather history database for the weather conditions in past years. The results will help you decide how hot, cold, wet, or windy it might be!

Date:

Astronomy

Jul. 26, 2012 Rise Set
Actual Time 6:14 AM CDT 8:46 PM CDT
Civil Twilight 5:43 AM CDT 9:18 PM CDT
Nautical Twilight 5:03 AM CDT 9:57 PM CDT
Astronomical Twilight 4:19 AM CDT 10:41 PM CDT
Moon 2:35 PM CDT (7/26) 12:08 AM CDT (7/26)
Length of Visible Light 15h 35m
Length of Day
14h 31m
First Quarter, 54% of the Moon is Illuminated
Jul 26
First Quarter
Aug 1
Full
Aug 9
Last Quarter
Aug 17
New
Aug 24
First Quarter

Hourly Weather History & Observations

Time (CDT) Temp. Heat Index Dew Point Humidity Pressure Visibility Wind Dir Wind Speed Gust Speed Precip Events Conditions
12:15 AM 75.2 °F - 72.0 °F 90% 29.76 in 10.0 mi Calm Calm - N/A   Clear
1:15 AM 75.0 °F - 71.6 °F 89% 29.79 in 10.0 mi WNW 3.5 mph - N/A   Clear
1:35 AM 75.6 °F - 71.2 °F 86% 29.79 in 10.0 mi SW 3.5 mph - N/A   Clear
1:55 AM 75.4 °F - 71.6 °F 88% 29.78 in 10.0 mi Calm Calm - N/A   Clear
2:15 AM 75.2 °F - 71.8 °F 89% 29.78 in 10.0 mi WNW 6.9 mph - N/A   Clear
2:35 AM 75.2 °F - 72.1 °F 90% 29.78 in 10.0 mi NW 6.9 mph - N/A   Clear
2:55 AM 74.8 °F - 72.5 °F 92% 29.78 in 10.0 mi NW 5.8 mph - N/A   Clear
3:15 AM 74.5 °F - 72.3 °F 93% 29.78 in 10.0 mi WNW 6.9 mph - N/A   Clear
3:35 AM 74.8 °F - 72.5 °F 92% 29.78 in 10.0 mi NW 6.9 mph - N/A   Clear
3:55 AM 75.2 °F - 70.5 °F 85% 29.78 in 10.0 mi NW 6.9 mph - N/A   Clear
4:15 AM 74.3 °F - 69.4 °F 85% 29.77 in 10.0 mi NW 5.8 mph - N/A   Clear
4:35 AM 73.9 °F - 69.1 °F 85% 29.78 in 10.0 mi NW 3.5 mph - N/A   Clear
4:55 AM 73.9 °F - 68.5 °F 83% 29.78 in 10.0 mi NW 6.9 mph - N/A   Clear
5:15 AM 74.3 °F - 68.4 °F 82% 29.78 in 10.0 mi NW 5.8 mph - N/A   Clear
5:35 AM 74.3 °F - 68.2 °F 81% 29.79 in 10.0 mi NW 4.6 mph - N/A   Clear
5:55 AM 73.6 °F - 68.0 °F 83% 29.79 in 10.0 mi NW 5.8 mph - N/A   Clear
6:15 AM 72.7 °F - 67.6 °F 84% 29.80 in 10.0 mi WNW 5.8 mph - N/A   Clear
6:35 AM 73.0 °F - 68.0 °F 84% 29.81 in 10.0 mi NW 5.8 mph - N/A   Clear
6:55 AM 73.8 °F - 68.2 °F 83% 29.82 in 10.0 mi NW 5.8 mph - N/A   Clear
7:15 AM 74.1 °F - 68.5 °F 83% 29.83 in 10.0 mi WNW 3.5 mph - N/A   Clear
7:35 AM 75.2 °F - 69.1 °F 81% 29.83 in 10.0 mi NW 3.5 mph - N/A   Clear
7:55 AM 76.3 °F - 69.1 °F 78% 29.83 in 10.0 mi NW 3.5 mph - N/A   Clear
8:15 AM 77.9 °F - 69.1 °F 74% 29.84 in 10.0 mi NW 4.6 mph - N/A   Clear
8:35 AM 79.2 °F - 68.7 °F 70% 29.84 in 10.0 mi NW 6.9 mph - N/A   Clear
8:55 AM 80.6 °F 83.6 °F 69.1 °F 68% 29.84 in 7.0 mi NW 6.9 mph - N/A   Clear
9:15 AM 81.5 °F 85.1 °F 70.0 °F 68% 29.84 in 10.0 mi NW 4.6 mph - N/A   Clear
9:35 AM 82.2 °F 86.2 °F 70.3 °F 67% 29.86 in 10.0 mi NNW 8.1 mph - N/A   Clear
9:55 AM 83.5 °F 88.0 °F 70.7 °F 65% 29.86 in 10.0 mi NNW 5.8 mph - N/A   Clear
10:15 AM 84.7 °F 89.4 °F 70.3 °F 62% 29.86 in 10.0 mi NW 9.2 mph - N/A   Clear
10:35 AM 85.1 °F 89.4 °F 69.8 °F 60% 29.86 in 10.0 mi NW 11.5 mph - N/A   Clear
10:55 AM 85.8 °F 89.7 °F 69.1 °F 57% 29.86 in 10.0 mi NW 9.2 mph - N/A   Clear
11:15 AM 86.2 °F 90.0 °F 68.9 °F 56% 29.86 in 10.0 mi North 5.8 mph - N/A   Clear
11:35 AM 87.3 °F 91.2 °F 68.5 °F 54% 29.86 in 10.0 mi WNW 6.9 mph - N/A   Clear
11:55 AM 88.5 °F 92.3 °F 68.5 °F 51% 29.86 in 10.0 mi NNW 5.8 mph - N/A   Clear
12:15 PM 88.7 °F 91.1 °F 66.2 °F 47% 29.86 in 10.0 mi NNW 6.9 mph - N/A   Clear
12:35 PM 89.4 °F 90.8 °F 64.2 °F 43% 29.86 in 10.0 mi NW 8.1 mph - N/A   Clear
12:55 PM 91.0 °F 91.9 °F 63.0 °F 39% 29.86 in 10.0 mi West 8.1 mph - N/A   Clear
1:15 PM 91.6 °F 92.3 °F 62.8 °F 38% 29.86 in 10.0 mi WNW 11.5 mph - N/A   Clear
1:35 PM 91.4 °F 91.4 °F 60.6 °F 36% 29.85 in 10.0 mi West 9.2 mph - N/A   Clear
1:55 PM 91.4 °F 93.2 °F 64.6 °F 41% 29.85 in 10.0 mi WNW 12.7 mph - N/A   Clear
2:15 PM 91.6 °F 93.1 °F 64.2 °F 40% 29.85 in 10.0 mi NW 9.2 mph - N/A   Clear
2:35 PM 92.1 °F 93.6 °F 63.7 °F 39% 29.85 in 10.0 mi WNW 8.1 mph - N/A   Clear
2:55 PM 92.3 °F 92.3 °F 61.3 °F 35% 29.85 in 10.0 mi West 6.9 mph - N/A   Clear
3:15 PM 93.6 °F 93.8 °F 61.5 °F 34% 29.85 in 10.0 mi NW 9.2 mph 16.1 mph N/A   Clear
3:35 PM 94.3 °F 94.9 °F 62.1 °F 34% 29.84 in 10.0 mi West 13.8 mph - N/A   Clear
3:55 PM 93.2 °F 93.3 °F 61.0 °F 34% 29.83 in 10.0 mi West 9.2 mph - N/A   Clear
4:15 PM 94.5 °F 95.2 °F 62.4 °F 34% 29.83 in 10.0 mi West 11.5 mph 17.3 mph N/A   Scattered Clouds
4:35 PM 93.4 °F 93.5 °F 61.5 °F 34% 29.83 in 10.0 mi WNW 8.1 mph 16.1 mph N/A   Scattered Clouds
4:55 PM 95.2 °F 95.1 °F 59.9 °F 31% 29.83 in 10.0 mi WNW 12.7 mph 16.1 mph N/A   Clear
5:15 PM 95.2 °F 94.7 °F 58.8 °F 30% 29.82 in 10.0 mi West 11.5 mph 21.9 mph N/A   Clear
5:35 PM 95.4 °F 93.2 °F 54.7 °F 25% 29.82 in 10.0 mi WNW 13.8 mph - N/A   Clear
5:55 PM 95.0 °F 93.7 °F 56.7 °F 28% 29.82 in 10.0 mi NW 11.5 mph 21.9 mph N/A   Clear
6:15 PM 95.0 °F 94.0 °F 57.7 °F 29% 29.82 in 10.0 mi WNW 9.2 mph 16.1 mph N/A   Clear
6:35 PM 94.5 °F 92.6 °F 56.1 °F 27% 29.81 in 10.0 mi West 15.0 mph - N/A   Clear
6:55 PM 94.1 °F 92.5 °F 55.9 °F 28% 29.82 in 10.0 mi WNW 12.7 mph 18.4 mph N/A   Clear
7:15 PM 93.4 °F 91.3 °F 54.5 °F 27% 29.82 in 10.0 mi NW 10.4 mph - N/A   Clear
7:35 PM 92.7 °F 90.4 °F 54.0 °F 27% 29.82 in 10.0 mi NW 10.4 mph - N/A   Clear
7:55 PM 91.8 °F 89.5 °F 54.0 °F 28% 29.81 in 10.0 mi NW 8.1 mph - N/A   Clear
8:15 PM 90.0 °F 87.9 °F 54.5 °F 30% 29.82 in 10.0 mi WNW 6.9 mph - N/A   Clear
8:35 PM 87.8 °F 85.9 °F 54.9 °F 32% 29.82 in 10.0 mi WNW 3.5 mph - N/A   Clear
8:55 PM 85.5 °F 84.3 °F 56.7 °F 37% 29.83 in 10.0 mi Calm Calm - N/A   Clear
9:15 PM 84.6 °F 83.5 °F 56.3 °F 38% 29.84 in 10.0 mi Calm Calm - N/A   Clear
9:35 PM 82.0 °F 82.0 °F 58.1 °F 44% 29.85 in 10.0 mi Calm Calm - N/A   Clear
9:55 PM 81.5 °F 81.6 °F 58.5 °F 45% 29.86 in 10.0 mi Calm Calm - N/A   Clear
10:15 PM 79.7 °F - 59.7 °F 50% 29.87 in 10.0 mi WSW 6.9 mph - N/A   Clear
10:35 PM 81.3 °F 81.7 °F 59.5 °F 47% 29.88 in 10.0 mi West 4.6 mph - N/A   Clear
10:55 PM 79.2 °F - 59.9 °F 52% 29.89 in 10.0 mi NW 3.5 mph - N/A   Clear
11:15 PM 79.2 °F - 61.0 °F 54% 29.90 in 10.0 mi NW 4.6 mph - N/A   Clear
11:35 PM 79.0 °F - 61.7 °F 55% 29.92 in 10.0 mi Calm Calm - N/A   Clear
11:55 PM 81.7 °F 81.4 °F 56.5 °F 42% 29.93 in 10.0 mi North 5.8 mph - N/A   Clear